[[{"header":{"parameterUnit":"m.s-1","parameterCategory":1,"la1":30.2992,"la2":30.254,"lo1":-89.0895,"lo2":-89.0443,"dy":0.0025,"dx":0.0025,"nx":19,"ny":19,"refTime":"2026-04-18T09:00:00:Z","depth":0,"parameterNumber":2,"parameterNumberName":"U-component_of_WINDS"},"data":[0,0,0,-2.4675,-2.4678,-2.4834,-2.4834,-2.5041,-2.5043,0,0,0,0,0,0,0,0,0,0,0,-2.4632,-2.4634,-2.4674,-2.4678,-2.4834,-2.4834,-2.5041,-2.5043,0,0,0,0,0,0,0,0,0,0,0,-2.4631,-2.4633,-2.4635,-2.4679,-2.4834,-2.4834,-2.5041,-2.4921,0,0,0,0,0,0,0,0,0,0,-2.4768,-2.4732,-2.4633,-2.4635,-2.468,-2.4833,-2.4835,-2.4915,-2.4928,-2.4974,0,-2.5014,0,-2.5032,-2.5057,-2.5058,0,0,0,-2.4676,-2.4721,-2.4759,-2.4635,-2.4681,-2.4833,-2.4763,-2.4922,-2.4937,-2.4992,-2.5017,-2.5025,-2.5035,-2.5059,-2.506,-2.5327,-2.5328,0,0,-2.4668,-2.4663,-2.4749,-2.4769,-2.4744,-2.4758,-2.4768,-2.4931,-2.4959,-2.5018,-2.5029,-2.5039,-2.506,-2.5062,-2.5326,-2.5327,0,0,0,-2.4644,-2.4657,-2.4691,-2.4761,-2.4788,-2.4763,-2.4774,-2.4952,-2.4963,-2.5031,-2.5041,-2.5061,-2.5064,-2.5324,-2.5326,-2.5388,0,0,0,-2.4639,-2.4643,-2.4687,-2.4686,-2.4786,-2.4872,-2.4791,-2.4952,-2.4971,-2.504,-2.5062,-2.5066,-2.5323,-2.5325,-2.5383,-2.5419,0,0,0,-2.4621,-2.4641,-2.4664,-2.4685,-2.4752,-2.4869,-2.489,-2.4956,-2.4977,-2.5058,-2.5067,-2.5322,-2.5325,-2.5379,-2.5412,-2.5488,0,0,0,-2.46,-2.4718,-2.4665,-2.48,-2.475,-2.4905,-2.4889,-2.5006,-2.5083,-2.5063,-2.5323,-2.5326,-2.5377,-2.5408,-2.5484,-2.5553,-2.5581,0,0,-2.4746,-2.4735,-2.4815,-2.4773,-2.4936,-2.4882,-2.5055,-2.5131,-2.5144,-2.5265,-2.5272,-2.5385,-2.5411,-2.5487,-2.5735,-2.5757,0,0,0,-2.486,-2.4918,-2.4962,-2.5034,-2.5093,-2.5148,-2.5198,-2.5226,-2.5328,-2.5205,-2.5432,-2.5448,-2.5493,-2.5527,-2.5545,-2.5585,-2.5341,-2.534,-2.534,-2.5062,-2.507,-2.5203,-2.523,-2.53,-2.5349,-2.5407,-2.5453,-2.5443,-2.5496,-2.5533,-2.5682,-2.5721,-2.5735,-2.5776,-2.5569,-2.5569,-2.5569,-2.5569,-2.5278,-2.5361,-2.5341,-2.5463,-2.5472,-2.5575,-2.5626,-2.5615,-2.5713,-2.5655,-2.5696,-2.5634,-2.5759,-2.5795,-2.5574,-2.5573,-2.5573,-2.5572,-2.5572,-2.5412,-2.5454,-2.5484,-2.5588,-2.5668,-2.5691,-2.5785,-2.5789,-2.5794,-2.5834,-2.5873,-2.5872,-2.5873,-2.5852,-2.5852,-2.5853,-2.5853,-2.5854,-2.5854,-2.5541,-2.5573,-2.5651,-2.5723,-2.5769,-2.5831,-2.5879,-2.5926,-2.5978,-2.5974,-2.5974,-2.5959,-2.5769,-2.5722,-2.5862,-2.5861,-2.586,-2.5859,-2.5858,-2.576,-2.5711,-2.5832,-2.5878,-2.5962,-2.6041,-2.6044,-2.6137,-2.6176,-2.6222,-2.6197,-2.6055,-2.6046,-2.6031,-2.5992,-2.6194,-2.6194,-2.6194,-2.6194,-2.5875,-2.5869,-2.5994,-2.6067,-2.614,-2.6154,-2.6292,-2.633,-2.6363,-2.6387,-2.6358,-2.6306,-2.6291,-2.629,-2.627,-2.6234,-2.6493,-2.6493,-2.6493,-2.6012,-2.6012,-2.6129,-2.6158,-2.6223,-2.6279,-2.6409,-2.6495,-2.6522,-2.6506,-2.6407,-2.6394,-2.6311,-2.6283,-2.6268,-2.6236,-2.617,0,0]},{"header":{"parameterUnit":"m.s-1","parameterCategory":1,"la1":30.2992,"la2":30.254,"lo1":-89.0895,"lo2":-89.0443,"dy":0.0025,"dx":0.0025,"nx":19,"ny":19,"refTime":"2026-04-18T09:00:00:Z","depth":0,"parameterNumber":3,"parameterNumberName":"V-component_of_WINDS"},"data":[0,0,0,-10.441,-10.4415,-10.4654,-10.4655,-10.4979,-10.4982,0,0,0,0,0,0,0,0,0,0,0,-10.4355,-10.4358,-10.4409,-10.4416,-10.4654,-10.4655,-10.4979,-10.4982,0,0,0,0,0,0,0,0,0,0,0,-10.4354,-10.4357,-10.4361,-10.4417,-10.4654,-10.4655,-10.4978,-10.479,0,0,0,0,0,0,0,0,0,0,-10.4554,-10.4521,-10.4356,-10.4361,-10.4418,-10.4654,-10.4655,-10.4781,-10.4802,-10.4881,0,-10.496,0,-10.4977,-10.5006,-10.5007,0,0,0,-10.4402,-10.4503,-10.4554,-10.4361,-10.442,-10.4653,-10.4543,-10.4792,-10.4816,-10.4909,-10.4964,-10.4975,-10.4982,-10.5008,-10.501,-10.5523,-10.5526,0,0,-10.4389,-10.4405,-10.4537,-10.457,-10.454,-10.4535,-10.455,-10.4806,-10.4865,-10.4965,-10.4983,-10.4988,-10.501,-10.5013,-10.552,-10.5524,0,0,0,-10.436,-10.4397,-10.444,-10.4558,-10.4599,-10.4542,-10.456,-10.4854,-10.4867,-10.4986,-10.4991,-10.5012,-10.5017,-10.5517,-10.5521,-10.569,0,0,0,-10.4352,-10.438,-10.4435,-10.4447,-10.4595,-10.4731,-10.4602,-10.4849,-10.4878,-10.499,-10.5013,-10.502,-10.5513,-10.5519,-10.5678,-10.5766,0,0,0,-10.4334,-10.4377,-10.4418,-10.4448,-10.4552,-10.4726,-10.4753,-10.4855,-10.4882,-10.5007,-10.5021,-10.5511,-10.5518,-10.5668,-10.5749,-10.5908,0,0,0,-10.4318,-10.4561,-10.4421,-10.4694,-10.455,-10.483,-10.4752,-10.4958,-10.5085,-10.5014,-10.5514,-10.5521,-10.5664,-10.5738,-10.5897,-10.6047,-10.611,0,0,-10.4634,-10.46,-10.4759,-10.4641,-10.4951,-10.4792,-10.5124,-10.5223,-10.5217,-10.542,-10.5432,-10.5682,-10.5748,-10.5906,-10.6458,-10.6509,0,0,0,-10.4865,-10.498,-10.5058,-10.5183,-10.5268,-10.5347,-10.5394,-10.543,-10.5603,-10.5327,-10.5781,-10.582,-10.5912,-10.5982,-10.6025,-10.6103,-10.5554,-10.5553,-10.5553,-10.5334,-10.5318,-10.5581,-10.5594,-10.5716,-10.5764,-10.586,-10.5916,-10.586,-10.5968,-10.6029,-10.6367,-10.645,-10.6482,-10.6564,-10.6105,-10.6105,-10.6106,-10.6106,-10.5796,-10.5957,-10.5881,-10.611,-10.609,-10.6279,-10.6333,-10.6288,-10.646,-10.6319,-10.6399,-10.6248,-10.6539,-10.6609,-10.6119,-10.6117,-10.6115,-10.6114,-10.6113,-10.6103,-10.6178,-10.6221,-10.6402,-10.6542,-10.6544,-10.6715,-10.6688,-10.6664,-10.6743,-10.6805,-10.6802,-10.6797,-10.6775,-10.6776,-10.6777,-10.6778,-10.6779,-10.678,-10.6405,-10.6449,-10.6598,-10.6711,-10.6788,-10.6887,-10.6937,-10.7012,-10.7087,-10.7054,-10.7054,-10.6988,-10.6571,-10.6467,-10.6798,-10.6794,-10.6792,-10.679,-10.6789,-10.6882,-10.6771,-10.7002,-10.7081,-10.721,-10.7352,-10.7317,-10.7471,-10.7528,-10.7612,-10.753,-10.7225,-10.7187,-10.7152,-10.7066,-10.7532,-10.7532,-10.7532,-10.7532,-10.7143,-10.7122,-10.7353,-10.7481,-10.7602,-10.7595,-10.7854,-10.7895,-10.7919,-10.7953,-10.7881,-10.7764,-10.773,-10.7712,-10.7666,-10.7585,-10.8173,-10.8173,-10.8174,-10.7436,-10.7426,-10.7654,-10.7681,-10.778,-10.7865,-10.8108,-10.8254,-10.8257,-10.8199,-10.7979,-10.7952,-10.7763,-10.7703,-10.764,-10.7568,-10.742,0,0]}]]